Regional Weather Roundup
Issued by NWS

Home | Current Version | Previous Version | Graphics & Text | Print | Product List | Glossary On
Versions: 1 2 3 4 5 6 7 8 9 10 11 12 13 14 15 16 17 18 19 20 21 22 23 24 25 26 27 28 29 30 31 32 33 34 35 36 37 38 39 40 41 42 43 44 45 46 47 48 49 50
000
ASUS43 KFSD 230210
RWRSD

WEATHER ROUNDUP FOR SOUTH DAKOTA
NATIONAL WEATHER SERVICE SIOUX FALLS SD
800 PM CST MON JAN 22 2018

NOTE: "FAIR" INDICATES FEW OR NO CLOUDS BELOW 12,000 FEET WITH NO
SIGNIFICANT WEATHER AND/OR OBSTRUCTIONS TO VISIBILITY.


SDZ001>005-009-010-012>017-230300-
NORTHWEST AND NORTH CENTRAL SOUTH DAKOTA

CITY           SKY/WX    TMP DP  RH WIND       PRES   REMARKS
BUFFALO          N/A     24  16  71 NW7       29.94S WCI  16
FAITH            N/A     26  21  81 NW10      30.00R WCI  16
MOBRIDGE       CLOUDY    24  21  88 N5        30.02R FOG     WCI  18
$$

SDZ012>016-024>037-041>051-057-063-072>074-230300-
SOUTHWEST AND SOUTH CENTRAL SOUTH DAKOTA

CITY           SKY/WX    TMP DP  RH WIND       PRES   REMARKS
RAPID CTY ARPT PTCLDY    26  17  68 NW13      30.01R WCI  15
PIERRE         CLOUDY    21  21 100 N8        30.04R FOG     WCI  11
CUSTER         PTCLDY    25   9  50 VRB7      29.97R WCI  17
ELLSWORTH AFB  PTCLDY    30  18  61 NW14      30.00S WCI  20
PHILIP         CLEAR     25  23  92 W3        30.03R
PINE RIDGE     CLEAR     13  10  88 W3        30.04R
SPEARFISH        N/A     32  18  55 W8        30.03R WCI  25
WINNER         MIX PCPN  24  22  91 N16       30.01R FOG     WCI  11
$$

SDZ004>011-016>023-039-040-230300-
NORTHEAST SOUTH DAKOTA

CITY           SKY/WX    TMP DP  RH WIND       PRES   REMARKS
ABERDEEN       CLOUDY    22  21  96 N15       30.03S WCI   9
WATERTOWN      CLOUDY    22  21  96 N22       29.93R WCI   6
BROOKINGS      CLOUDY    25  22  88 N23       29.90R WCI  10
SISSETON         N/A     25  22  88 N15       29.99R WCI  13
$$

SDZ017-020-022-023-036>040-048>070-230300-
SOUTHEAST SOUTH DAKOTA

CITY           SKY/WX    TMP DP  RH WIND       PRES   REMARKS
SIOUX FALLS    CLOUDY    28  24  85 N24G33    29.87R WCI  14
HURON          CLOUDY    23  22  96 N12       30.00R WCI  12
CHAMBERLAIN    CLOUDY    25  24  96 NW13      30.01R WCI  13
MITCHELL       CLOUDY    25  23  92 N22       29.99R WCI  10
YANKTON        FLURRIES  26  23  88 NW23G29   29.91R WCI  11
$$

ABBREVIATIONS USED IN REMARKS
   TC - TEMPERATURE IN CELSIUS
  WCI - WIND CHILL INDEX
   HX - HEAT INDEX
  VSB - VISIBILITY





USA.gov is the U.S. government's official web portal to all federal, state and local government web resources and services.